| time (UTC) | temp F | wind direction | speed MPH | gust MPH | rain 1hr in | rain 24hr in | rain mn in | humidity % | barometer mb |
| 20260505212504 | 80 | 187 | 10.0 | 22.0 | 0.00 | 0.00 | 0.00 | 45 | 1015.2 |
| 20260505212004 | 79 | 200 | 7.0 | 21.0 | 0.00 | 0.00 | 0.00 | 46 | 1015.2 |
| 20260505211504 | 79 | 202 | 12.0 | 20.0 | 0.00 | 0.00 | 0.00 | 45 | 1015.3 |
| 20260505210505 | 80 | 176 | 7.0 | 16.0 | 0.00 | 0.00 | 0.00 | 46 | 1015.5 |
| 20260505210005 | 80 | 220 | 11.0 | 17.0 | 0.00 | 0.00 | 0.00 | 46 | 1015.5 |
| 20260505205504 | 79 | 207 | 9.0 | 18.0 | 0.00 | 0.00 | 0.00 | 47 | 1015.4 |
| 20260505205005 | 79 | 208 | 13.0 | 23.0 | 0.00 | 0.00 | 0.00 | 44 | 1015.4 |
| 20260505204005 | 79 | 176 | 10.0 | 22.0 | 0.00 | 0.00 | 0.00 | 46 | 1015.4 |
| 20260505203504 | 80 | 205 | 7.0 | 22.0 | 0.00 | 0.00 | 0.00 | 46 | 1015.4 |
| 20260505203005 | 79 | 231 | 10.0 | 23.0 | 0.00 | 0.00 | 0.00 | 45 | 1015.4 |
| 20260505202505 | 79 | 206 | 13.0 | 22.0 | 0.00 | 0.00 | 0.00 | 45 | 1015.5 |
| 20260505202004 | 79 | 198 | 11.0 | 18.0 | 0.00 | 0.00 | 0.00 | 46 | 1015.5 |
| 20260505201505 | 79 | 211 | 10.0 | 21.0 | 0.00 | 0.00 | 0.00 | 45 | 1015.6 |
| 20260505201004 | 79 | 200 | 12.0 | 21.0 | 0.00 | 0.00 | 0.00 | 45 | 1015.7 |
| 20260505200505 | 79 | 223 | 10.0 | 21.0 | 0.00 | 0.00 | 0.00 | 44 | 1015.7 |
| 20260505200005 | 79 | 207 | 12.0 | 18.0 | 0.00 | 0.00 | 0.00 | 46 | 1015.8 |
| 20260505195506 | 79 | 173 | 14.0 | 22.0 | 0.00 | 0.00 | 0.00 | 45 | 1016.0 |
| 20260505194504 | 79 | 209 | 12.0 | 21.0 | 0.00 | 0.00 | 0.00 | 47 | 1016.0 |
| 20260505194004 | 79 | 194 | 7.0 | 20.0 | 0.00 | 0.00 | 0.00 | 49 | 1016.2 |
| 20260505193504 | 78 | 179 | 10.0 | 21.0 | 0.00 | 0.00 | 0.00 | 46 | 1016.2 |
| 20260505193005 | 78 | 190 | 10.0 | 17.0 | 0.00 | 0.00 | 0.00 | 47 | 1016.2 |
| 20260505192505 | 78 | 184 | 10.0 | 17.0 | 0.00 | 0.00 | 0.00 | 46 | 1016.5 |
| 20260505192005 | 79 | 216 | 12.0 | 18.0 | 0.00 | 0.00 | 0.00 | 46 | 1016.5 |
| 20260505191505 | 79 | 219 | 7.0 | 13.0 | 0.00 | 0.00 | 0.00 | 47 | 1016.5 |
| 20260505190504 | 79 | 214 | 8.0 | 18.0 | 0.00 | 0.00 | 0.00 | 49 | 1016.6 |
| 20260505190005 | 78 | 206 | 11.0 | 18.0 | 0.00 | 0.00 | 0.00 | 47 | 1016.7 |
| 20260505185505 | 79 | 175 | 8.0 | 15.0 | 0.00 | 0.00 | 0.00 | 48 | 1017.0 |
| 20260505185005 | 79 | 195 | 13.0 | 17.0 | 0.00 | 0.00 | 0.00 | 45 | 1017.0 |
| 20260505184004 | 79 | 184 | 10.0 | 17.0 | 0.00 | 0.00 | 0.00 | 45 | 1017.1 |
| 20260505183504 | 78 | 205 | 10.0 | 17.0 | 0.00 | 0.00 | 0.00 | 47 | 1017.1 |
| 20260505183005 | 78 | 236 | 6.0 | 20.0 | 0.00 | 0.00 | 0.00 | 49 | 1017.1 |
| 20260505182505 | 78 | 210 | 7.0 | 21.0 | 0.00 | 0.00 | 0.00 | 46 | 1017.1 |
| 20260505182004 | 79 | 193 | 10.0 | 17.0 | 0.00 | 0.00 | 0.00 | 45 | 1017.1 |
| 20260505181505 | 78 | 204 | 8.0 | 18.0 | 0.00 | 0.00 | 0.00 | 50 | 1017.1 |
| 20260505180504 | 78 | 192 | 9.0 | 23.0 | 0.00 | 0.00 | 0.00 | 49 | 1017.1 |
| 20260505175004 | 79 | 184 | 8.0 | 15.0 | 0.00 | 0.00 | 0.00 | 49 | 1017.2 |
| 20260505174004 | 77 | 167 | 12.0 | 17.0 | 0.00 | 0.00 | 0.00 | 49 | 1017.2 |
| 20260505173505 | 77 | 205 | 7.0 | 15.0 | 0.00 | 0.00 | 0.00 | 49 | 1017.2 |
| 20260505173005 | 78 | 323 | 6.0 | 17.0 | 0.00 | 0.00 | 0.00 | 48 | 1017.2 |
| 20260505172505 | 77 | 198 | 10.0 | 17.0 | 0.00 | 0.00 | 0.00 | 52 | 1017.4 |
| 20260505172005 | 77 | 186 | 9.0 | 21.0 | 0.00 | 0.00 | 0.00 | 53 | 1017.4 |
| 20260505171505 | 76 | 224 | 6.0 | 15.0 | 0.00 | 0.00 | 0.00 | 54 | 1017.5 |
| 20260505165505 | 75 | 199 | 7.0 | 21.0 | 0.00 | 0.00 | 0.00 | 54 | 1017.6 |
| 20260505165005 | 76 | 222 | 9.0 | 16.0 | 0.00 | 0.00 | 0.00 | 54 | 1017.6 |
| 20260505164505 | 75 | 215 | 9.0 | 16.0 | 0.00 | 0.00 | 0.00 | 54 | 1017.6 |
| 20260505164005 | 76 | 200 | 10.0 | 18.0 | 0.00 | 0.00 | 0.00 | 56 | 1017.6 |
| 20260505163504 | 76 | 208 | 11.0 | 17.0 | 0.00 | 0.00 | 0.00 | 54 | 1017.6 |
| 20260505163005 | 75 | 224 | 12.0 | 20.0 | 0.00 | 0.00 | 0.00 | 55 | 1017.7 |
| 20260505162504 | 75 | 221 | 5.0 | 12.0 | 0.00 | 0.00 | 0.00 | 58 | 1017.9 |
| 20260505162005 | 75 | 201 | 6.0 | 15.0 | 0.00 | 0.00 | 0.00 | 58 | 1017.9 |
| 20260505161505 | 74 | 211 | 10.0 | 17.0 | 0.00 | 0.00 | 0.00 | 57 | 1018.0 |
| 20260505161004 | 74 | 184 | 9.0 | 21.0 | 0.00 | 0.00 | 0.00 | 58 | 1018.2 |
| 20260505160505 | 74 | 206 | 8.0 | 16.0 | 0.00 | 0.00 | 0.00 | 58 | 1018.2 |
| 20260505153005 | 73 | 207 | 9.0 | 17.0 | 0.00 | 0.00 | 0.00 | 60 | 1018.3 |
| 20260505152505 | 73 | 239 | 3.0 | 13.0 | 0.00 | 0.00 | 0.00 | 60 | 1018.4 |
| 20260505152005 | 73 | 218 | 10.0 | 16.0 | 0.00 | 0.00 | 0.00 | 60 | 1018.4 |
| 20260505151505 | 73 | 222 | 7.0 | 13.0 | 0.00 | 0.00 | 0.00 | 63 | 1018.4 |
| 20260505151005 | 72 | 293 | 8.0 | 13.0 | 0.00 | 0.00 | 0.00 | 62 | 1018.3 |
| 20260505150505 | 72 | 216 | 9.0 | 13.0 | 0.00 | 0.00 | 0.00 | 60 | 1018.3 |
| 20260505140505 | 70 | 210 | 9.0 | 18.0 | 0.00 | 0.00 | 0.00 | 66 | 1018.3 |
| 20260505125005 | 64 | 215 | 3.0 | 10.0 | 0.00 | 0.00 | 0.00 | 74 | 1018.4 |
| 20260505124005 | 63 | 222 | 5.0 | 8.0 | 0.00 | 0.00 | 0.00 | 75 | 1018.4 |
| 20260505123505 | 62 | 207 | 3.0 | 7.0 | 0.00 | 0.00 | 0.00 | 75 | 1018.4 |
| 20260505123005 | 62 | 232 | 3.0 | 8.0 | 0.00 | 0.00 | 0.00 | 76 | 1018.4 |
| 20260505122504 | 61 | 224 | 5.0 | 10.0 | 0.00 | 0.00 | 0.00 | 76 | 1018.4 |
| 20260505122005 | 61 | 249 | 6.0 | 10.0 | 0.00 | 0.00 | 0.00 | 77 | 1018.4 |
| 20260505121504 | 60 | 223 | 4.0 | 8.0 | 0.00 | 0.00 | 0.00 | 78 | 1018.3 |
| 20260505121005 | 60 | 192 | 5.0 | 8.0 | 0.00 | 0.00 | 0.00 | 79 | 1018.2 |
| 20260505120504 | 59 | 212 | 2.0 | 5.0 | 0.00 | 0.00 | 0.00 | 81 | 1018.2 |
| 20260505120005 | 59 | 196 | 4.0 | 7.0 | 0.00 | 0.00 | 0.00 | 80 | 1018.2 |
| 20260505115005 | 59 | 181 | 1.0 | 2.0 | 0.00 | 0.00 | 0.00 | 80 | 1018.2 |
| 20260505114504 | 59 | 181 | 1.0 | 3.0 | 0.00 | 0.00 | 0.00 | 80 | 1018.2 |
| 20260505114005 | 59 | 355 | 1.0 | 1.0 | 0.00 | 0.00 | 0.00 | 84 | 1018.2 |
| 20260505113504 | 57 | 355 | 0.0 | 1.0 | 0.00 | 0.00 | 0.00 | 88 | 1018.2 |
| 20260505113005 | 56 | 355 | 0.0 | 1.0 | 0.00 | 0.00 | 0.00 | 90 | 1018.2 |
| 20260505112504 | 55 | 355 | 0.0 | 1.0 | 0.00 | 0.00 | 0.00 | 92 | 1018.2 |
| 20260505112005 | 54 | 355 | 0.0 | 0.0 | 0.00 | 0.00 | 0.00 | 92 | 1018.2 |
| 20260505111505 | 53 | 355 | 0.0 | 1.0 | 0.00 | 0.00 | 0.00 | 93 | 1018.1 |
| 20260505111005 | 52 | 355 | 0.0 | 0.0 | 0.00 | 0.00 | 0.00 | 93 | 1017.9 |
| 20260505102005 | 50 | 165 | 0.0 | 1.0 | 0.00 | 0.00 | 0.00 | 90 | 1017.3 |
| 20260505101504 | 50 | 172 | 1.0 | 1.0 | 0.00 | 0.00 | 0.00 | 90 | 1017.3 |
| 20260505101004 | 50 | 172 | 0.0 | 1.0 | 0.00 | 0.00 | 0.00 | 90 | 1017.2 |
| 20260505100504 | 50 | 172 | 0.0 | 1.0 | 0.00 | 0.00 | 0.00 | 89 | 1017.2 |
| 20260505100005 | 50 | 172 | 0.0 | 1.0 | 0.00 | 0.00 | 0.00 | 89 | 1017.2 |
| 20260505095005 | 50 | 172 | 0.0 | 1.0 | 0.00 | 0.00 | 0.00 | 89 | 1017.1 |
| 20260505094504 | 51 | 172 | 1.0 | 1.0 | 0.00 | 0.00 | 0.00 | 88 | 1017.1 |
| 20260505094004 | 51 | 172 | 1.0 | 2.0 | 0.00 | 0.00 | 0.00 | 88 | 1017.1 |
| 20260505093505 | 51 | 172 | 1.0 | 2.0 | 0.00 | 0.00 | 0.00 | 87 | 1017.1 |
| 20260505092504 | 52 | 172 | 1.0 | 2.0 | 0.00 | 0.00 | 0.00 | 86 | 1016.9 |
| 20260505092005 | 52 | 172 | 1.0 | 2.0 | 0.00 | 0.00 | 0.00 | 86 | 1016.9 |
| 20260505091505 | 53 | 172 | 0.0 | 0.0 | 0.00 | 0.00 | 0.00 | 85 | 1016.9 |
| 20260505091004 | 53 | 172 | 0.0 | 0.0 | 0.00 | 0.00 | 0.00 | 84 | 1016.8 |
| 20260505090504 | 53 | 172 | 0.0 | 0.0 | 0.00 | 0.00 | 0.00 | 84 | 1016.8 |
| 20260505090005 | 54 | 172 | 0.0 | 0.0 | 0.00 | 0.00 | 0.00 | 83 | 1016.8 |
| 20260505085504 | 54 | 172 | 1.0 | 1.0 | 0.00 | 0.00 | 0.00 | 82 | 1016.8 |
| 20260505085005 | 54 | 172 | 0.0 | 1.0 | 0.00 | 0.00 | 0.00 | 81 | 1016.8 |
| 20260505084504 | 55 | 172 | 1.0 | 1.0 | 0.00 | 0.00 | 0.00 | 81 | 1016.8 |
| 20260505083504 | 56 | 194 | 1.0 | 1.0 | 0.00 | 0.00 | 0.00 | 79 | 1016.7 |
| 20260505082504 | 57 | 194 | 0.0 | 1.0 | 0.00 | 0.00 | 0.00 | 77 | 1016.6 |
| 20260505082005 | 57 | 194 | 0.0 | 1.0 | 0.00 | 0.00 | 0.00 | 76 | 1016.6 |
| 20260505081504 | 57 | 194 | 1.0 | 3.0 | 0.00 | 0.00 | 0.00 | 76 | 1016.6 |
| 20260505081005 | 57 | 176 | 1.0 | 2.0 | 0.00 | 0.00 | 0.00 | 76 | 1016.6 |
| 20260505080504 | 58 | 161 | 1.0 | 2.0 | 0.00 | 0.00 | 0.00 | 76 | 1016.6 |
| 20260505080004 | 58 | 184 | 1.0 | 2.0 | 0.00 | 0.00 | 0.00 | 75 | 1016.6 |
| 20260505075504 | 58 | 179 | 1.0 | 3.0 | 0.00 | 0.00 | 0.00 | 75 | 1016.5 |
| 20260505075005 | 58 | 200 | 3.0 | 5.0 | 0.00 | 0.00 | 0.00 | 75 | 1016.5 |
| 20260505074504 | 58 | 194 | 2.0 | 3.0 | 0.00 | 0.00 | 0.00 | 74 | 1016.5 |
| 20260505073504 | 59 | 200 | 3.0 | 5.0 | 0.00 | 0.00 | 0.00 | 73 | 1016.5 |
| 20260505073004 | 59 | 194 | 3.0 | 5.0 | 0.00 | 0.00 | 0.00 | 73 | 1016.5 |
| 20260505072504 | 59 | 171 | 3.0 | 5.0 | 0.00 | 0.00 | 0.00 | 72 | 1016.5 |
| 20260505072005 | 59 | 181 | 3.0 | 6.0 | 0.00 | 0.00 | 0.00 | 72 | 1016.5 |
| 20260505071504 | 60 | 190 | 5.0 | 12.0 | 0.00 | 0.00 | 0.00 | 72 | 1016.5 |
| 20260505071005 | 60 | 195 | 5.0 | 7.0 | 0.00 | 0.00 | 0.00 | 71 | 1016.5 |
| 20260505070504 | 60 | 200 | 3.0 | 7.0 | 0.00 | 0.00 | 0.00 | 71 | 1016.5 |
| 20260505070005 | 60 | 202 | 3.0 | 10.0 | 0.00 | 0.00 | 0.00 | 70 | 1016.5 |
| 20260505065504 | 60 | 207 | 5.0 | 7.0 | 0.00 | 0.00 | 0.00 | 70 | 1016.4 |
| 20260505064504 | 60 | 204 | 4.0 | 8.0 | 0.00 | 0.00 | 0.00 | 69 | 1016.4 |
| 20260505063505 | 60 | 210 | 3.0 | 6.0 | 0.00 | 0.00 | 0.00 | 69 | 1016.4 |
| 20260505063005 | 61 | 213 | 5.0 | 8.0 | 0.00 | 0.00 | 0.00 | 69 | 1016.4 |
| 20260505062505 | 61 | 204 | 3.0 | 8.0 | 0.00 | 0.00 | 0.00 | 68 | 1016.4 |
| 20260505062004 | 61 | 208 | 4.0 | 9.0 | 0.00 | 0.00 | 0.00 | 68 | 1016.4 |
| 20260505061004 | 61 | 189 | 5.0 | 8.0 | 0.00 | 0.00 | 0.00 | 68 | 1016.5 |
| 20260505060505 | 61 | 199 | 3.0 | 6.0 | 0.00 | 0.00 | 0.00 | 68 | 1016.5 |
| 20260505060005 | 61 | 189 | 5.0 | 8.0 | 0.00 | 0.00 | 0.00 | 68 | 1016.5 |
| 20260505055505 | 61 | 187 | 2.0 | 7.0 | 0.00 | 0.00 | 0.00 | 67 | 1016.6 |
| 20260505055005 | 61 | 197 | 6.0 | 8.0 | 0.00 | 0.00 | 0.00 | 67 | 1016.6 |
| 20260505054504 | 62 | 205 | 3.0 | 7.0 | 0.00 | 0.00 | 0.00 | 66 | 1016.6 |
| 20260505054004 | 62 | 191 | 6.0 | 10.0 | 0.00 | 0.00 | 0.00 | 66 | 1016.7 |
| 20260505053505 | 62 | 207 | 5.0 | 8.0 | 0.00 | 0.00 | 0.00 | 66 | 1016.7 |
| 20260505053005 | 62 | 212 | 4.0 | 7.0 | 0.00 | 0.00 | 0.00 | 66 | 1016.7 |
| 20260505052504 | 62 | 216 | 5.0 | 10.0 | 0.00 | 0.00 | 0.00 | 66 | 1016.8 |
| 20260505052005 | 62 | 206 | 5.0 | 9.0 | 0.00 | 0.00 | 0.00 | 65 | 1016.8 |
| 20260505051504 | 62 | 203 | 6.0 | 8.0 | 0.00 | 0.00 | 0.00 | 65 | 1016.8 |
| 20260505051004 | 63 | 223 | 5.0 | 12.0 | 0.00 | 0.00 | 0.00 | 65 | 1016.9 |
| 20260505041506 | 63 | 215 | 4.0 | 15.0 | 0.00 | 0.00 | 0.00 | 65 | 1016.8 |
| 20260505041006 | 63 | 200 | 7.0 | 15.0 | 0.00 | 0.00 | 0.00 | 65 | 1016.7 |
| 20260505040505 | 63 | 206 | 7.0 | 12.0 | 0.00 | 0.00 | 0.00 | 65 | 1016.7 |
| 20260505040005 | 64 | 215 | 6.0 | 10.0 | 0.00 | 0.00 | 0.00 | 64 | 1016.7 |
| 20260505035504 | 64 | 196 | 6.0 | 13.0 | 0.00 | 0.00 | 0.00 | 64 | 1016.7 |
| 20260505035004 | 64 | 200 | 6.0 | 13.0 | 0.00 | 0.00 | 0.00 | 64 | 1016.7 |
| 20260505034504 | 64 | 197 | 6.0 | 10.0 | 0.00 | 0.00 | 0.00 | 64 | 1016.7 |
| 20260505034005 | 64 | 222 | 7.0 | 16.0 | 0.00 | 0.00 | 0.00 | 63 | 1016.7 |
| 20260505033005 | 64 | 206 | 6.0 | 12.0 | 0.00 | 0.00 | 0.00 | 63 | 1016.7 |
| 20260505032504 | 64 | 196 | 9.0 | 13.0 | 0.00 | 0.00 | 0.00 | 63 | 1016.7 |
| 20260505032004 | 64 | 207 | 6.0 | 15.0 | 0.00 | 0.00 | 0.00 | 62 | 1016.7 |
| 20260505031504 | 65 | 192 | 6.0 | 16.0 | 0.00 | 0.00 | 0.00 | 62 | 1016.7 |
| 20260505031004 | 65 | 219 | 5.0 | 10.0 | 0.00 | 0.00 | 0.00 | 62 | 1016.7 |
| 20260505030004 | 65 | 206 | 8.0 | 15.0 | 0.00 | 0.00 | 0.00 | 62 | 1016.7 |
| 20260505025004 | 65 | 198 | 7.0 | 15.0 | 0.00 | 0.00 | 0.00 | 62 | 1016.8 |
| 20260505024004 | 66 | 196 | 8.0 | 16.0 | 0.00 | 0.00 | 0.00 | 62 | 1016.6 |
| 20260505023505 | 66 | 185 | 7.0 | 15.0 | 0.00 | 0.00 | 0.00 | 62 | 1016.6 |
| 20260505022504 | 66 | 222 | 6.0 | 15.0 | 0.00 | 0.00 | 0.00 | 61 | 1016.6 |
| 20260505022005 | 67 | 197 | 10.0 | 17.0 | 0.00 | 0.00 | 0.00 | 61 | 1016.6 |
| 20260505021505 | 67 | 209 | 8.0 | 17.0 | 0.00 | 0.00 | 0.00 | 61 | 1016.5 |
| 20260505021005 | 67 | 216 | 10.0 | 21.0 | 0.00 | 0.00 | 0.00 | 61 | 1016.5 |
| 20260505020005 | 67 | 185 | 7.0 | 12.0 | 0.00 | 0.00 | 0.00 | 60 | 1016.4 |
| 20260505015505 | 68 | 197 | 7.0 | 15.0 | 0.00 | 0.00 | 0.00 | 60 | 1016.3 |
| 20260505014505 | 68 | 178 | 11.0 | 17.0 | 0.00 | 0.00 | 0.00 | 59 | 1016.3 |
| 20260505014005 | 68 | 210 | 12.0 | 21.0 | 0.00 | 0.00 | 0.00 | 59 | 1016.1 |
| 20260505013504 | 68 | 198 | 6.0 | 17.0 | 0.00 | 0.00 | 0.00 | 59 | 1016.1 |
| 20260505013004 | 68 | 204 | 9.0 | 22.0 | 0.00 | 0.00 | 0.00 | 59 | 1016.0 |
| 20260505012505 | 69 | 201 | 8.0 | 16.0 | 0.00 | 0.00 | 0.00 | 58 | 1015.9 |
| 20260505012005 | 69 | 201 | 12.0 | 20.0 | 0.00 | 0.00 | 0.00 | 57 | 1015.9 |
| 20260505011505 | 69 | 193 | 10.0 | 18.0 | 0.00 | 0.00 | 0.00 | 55 | 1015.8 |
| 20260505011005 | 69 | 202 | 7.0 | 16.0 | 0.00 | 0.00 | 0.00 | 54 | 1015.5 |
| 20260505010505 | 69 | 198 | 8.0 | 15.0 | 0.00 | 0.00 | 0.00 | 50 | 1015.5 |
| 20260505010004 | 70 | 192 | 7.0 | 13.0 | 0.00 | 0.00 | 0.00 | 48 | 1015.4 |
| 20260505005505 | 70 | 201 | 5.0 | 13.0 | 0.00 | 0.00 | 0.00 | 46 | 1015.1 |
| 20260505005005 | 70 | 199 | 7.0 | 16.0 | 0.00 | 0.00 | 0.00 | 46 | 1015.1 |
| 20260505004504 | 70 | 194 | 5.0 | 8.0 | 0.00 | 0.00 | 0.00 | 45 | 1015.1 |
| 20260505004004 | 70 | 182 | 4.0 | 12.0 | 0.00 | 0.00 | 0.00 | 45 | 1015.0 |
| 20260505003505 | 70 | 186 | 3.0 | 8.0 | 0.00 | 0.00 | 0.00 | 45 | 1015.0 |
| 20260505003005 | 70 | 202 | 3.0 | 6.0 | 0.00 | 0.00 | 0.00 | 45 | 1015.0 |
| 20260505002005 | 71 | 197 | 3.0 | 6.0 | 0.00 | 0.00 | 0.00 | 44 | 1014.9 |
| 20260505001504 | 71 | 202 | 2.0 | 6.0 | 0.00 | 0.00 | 0.00 | 43 | 1014.8 |
| 20260505001004 | 72 | 199 | 3.0 | 5.0 | 0.00 | 0.00 | 0.00 | 42 | 1014.7 |
| 20260505000504 | 72 | 220 | 2.0 | 5.0 | 0.00 | 0.00 | 0.00 | 41 | 1014.7 |
| 20260504235505 | 73 | 207 | 4.0 | 7.0 | 0.00 | 0.00 | 0.00 | 39 | 1014.6 |
| 20260504235004 | 74 | 209 | 5.0 | 9.0 | 0.00 | 0.00 | 0.00 | 39 | 1014.6 |
| 20260504234504 | 74 | 216 | 5.0 | 9.0 | 0.00 | 0.00 | 0.00 | 38 | 1014.6 |
| 20260504234005 | 74 | 204 | 5.0 | 10.0 | 0.00 | 0.00 | 0.00 | 38 | 1014.5 |
| 20260504233505 | 74 | 205 | 7.0 | 12.0 | 0.00 | 0.00 | 0.00 | 37 | 1014.5 |
| 20260504233004 | 74 | 206 | 6.0 | 12.0 | 0.00 | 0.00 | 0.00 | 37 | 1014.4 |
| 20260504232505 | 75 | 197 | 5.0 | 10.0 | 0.00 | 0.00 | 0.00 | 38 | 1014.2 |
| 20260504232004 | 75 | 205 | 6.0 | 12.0 | 0.00 | 0.00 | 0.00 | 37 | 1014.2 |
| 20260504231505 | 75 | 209 | 5.0 | 10.0 | 0.00 | 0.00 | 0.00 | 37 | 1014.2 |
| 20260504231005 | 76 | 190 | 7.0 | 15.0 | 0.00 | 0.00 | 0.00 | 36 | 1014.3 |
| 20260504230505 | 76 | 204 | 9.0 | 18.0 | 0.00 | 0.00 | 0.00 | 36 | 1014.3 |
| 20260504230005 | 76 | 203 | 7.0 | 17.0 | 0.00 | 0.00 | 0.00 | 36 | 1014.3 |
| 20260504225005 | 76 | 211 | 7.0 | 16.0 | 0.00 | 0.00 | 0.00 | 36 | 1014.2 |
| 20260504224504 | 77 | 196 | 8.0 | 17.0 | 0.00 | 0.00 | 0.00 | 35 | 1014.3 |
| 20260504224004 | 77 | 207 | 9.0 | 15.0 | 0.00 | 0.00 | 0.00 | 35 | 1014.4 |
| 20260504223504 | 77 | 214 | 7.0 | 15.0 | 0.00 | 0.00 | 0.00 | 33 | 1014.4 |
| 20260504223005 | 77 | 208 | 7.0 | 20.0 | 0.00 | 0.00 | 0.00 | 34 | 1014.4 |
| 20260504222504 | 78 | 196 | 7.0 | 20.0 | 0.00 | 0.00 | 0.00 | 34 | 1014.3 |
| 20260504222004 | 78 | 207 | 5.0 | 13.0 | 0.00 | 0.00 | 0.00 | 34 | 1014.3 |
| 20260504221505 | 77 | 195 | 8.0 | 15.0 | 0.00 | 0.00 | 0.00 | 35 | 1014.3 |
| 20260504221004 | 78 | 208 | 12.0 | 17.0 | 0.00 | 0.00 | 0.00 | 34 | 1014.3 |
| 20260504220504 | 78 | 185 | 6.0 | 13.0 | 0.00 | 0.00 | 0.00 | 33 | 1014.3 |
| 20260504220005 | 79 | 221 | 5.0 | 12.0 | 0.00 | 0.00 | 0.00 | 33 | 1014.3 |
| 20260504215504 | 79 | 198 | 7.0 | 15.0 | 0.00 | 0.00 | 0.00 | 33 | 1014.4 |
| 20260504215004 | 79 | 230 | 9.0 | 17.0 | 0.00 | 0.00 | 0.00 | 32 | 1014.4 |
| 20260504214004 | 79 | 210 | 3.0 | 13.0 | 0.00 | 0.00 | 0.00 | 32 | 1014.5 |
| 20260504213505 | 78 | 212 | 6.0 | 16.0 | 0.00 | 0.00 | 0.00 | 33 | 1014.5 |